owner,sensor,date,latitude,longitude,vertical_datum,sea_water_practical_salinity,qcFlag 
SCCF RECON,ioos:station:SCCF:51:1,2011-02-01T00:00:00Z,26.5545,-82.1715,1.83,33.59,1111122 
SCCF RECON,ioos:station:SCCF:51:1,2011-02-01T01:00:00Z,26.5545,-82.1715,1.903,33.63,1111122 
SCCF RECON,ioos:station:SCCF:51:1,2011-02-01T02:00:00Z,26.5545,-82.1715,2.0,33.74,1111122 
SCCF RECON,ioos:station:SCCF:51:1,2011-02-01T03:00:00Z,26.5545,-82.1715,2.05,33.77,1111122 
SCCF RECON,ioos:station:SCCF:51:1,2011-02-01T04:00:00Z,26.5545,-82.1715,2.07,33.68,1111122 
SCCF RECON,ioos:station:SCCF:51:1,2011-02-01T05:00:00Z,26.5545,-82.1715,2.034,33.62,1111122 
SCCF RECON,ioos:station:SCCF:51:1,2011-02-01T06:00:00Z,26.5545,-82.1715,1.95,33.65,1111122 
SCCF RECON,ioos:station:SCCF:51:1,2011-02-01T07:00:00Z,26.5545,-82.1715,1.83,33.42,1111122 
SCCF RECON,ioos:station:SCCF:51:1,2011-02-01T08:00:00Z,26.5545,-82.1715,1.686,33.2,1111122 
SCCF RECON,ioos:station:SCCF:51:1,2011-02-01T09:00:00Z,26.5545,-82.1715,1.55,33.05,1111122 
SCCF RECON,ioos:station:SCCF:51:1,2011-02-01T10:00:00Z,26.5545,-82.1715,1.43,32.92,1111122 
SCCF RECON,ioos:station:SCCF:51:1,2011-02-01T11:00:00Z,26.5545,-82.1715,1.33,32.82,1111122 
SCCF RECON,ioos:station:SCCF:51:1,2011-02-01T12:00:00Z,26.5545,-82.1715,1.276,32.79,1111122 
SCCF RECON,ioos:station:SCCF:51:1,2011-02-01T13:00:00Z,26.5545,-82.1715,1.319,32.81,1111122 
SCCF RECON,ioos:station:SCCF:51:1,2011-02-01T14:00:00Z,26.5545,-82.1715,1.425,32.84,1111122 
SCCF RECON,ioos:station:SCCF:51:1,2011-02-01T15:00:00Z,26.5545,-82.1715,1.564,33.23,1111122 
SCCF RECON,ioos:station:SCCF:51:1,2011-02-01T16:00:00Z,26.5545,-82.1715,1.679,33.46,1111122 
SCCF RECON,ioos:station:SCCF:51:1,2011-02-01T17:00:00Z,26.5545,-82.1715,1.768,33.32,1111122 
SCCF RECON,ioos:station:SCCF:51:1,2011-02-01T18:00:00Z,26.5545,-82.1715,1.81,33.44,1111122 
SCCF RECON,ioos:station:SCCF:51:1,2011-02-01T19:00:00Z,26.5545,-82.1715,1.799,33.35,1111122 
SCCF RECON,ioos:station:SCCF:51:1,2011-02-01T20:00:00Z,26.5545,-82.1715,1.771,33.53,1111122 
SCCF RECON,ioos:station:SCCF:51:1,2011-02-01T21:00:00Z,26.5545,-82.1715,1.733,33.01,1111122 
SCCF RECON,ioos:station:SCCF:51:1,2011-02-01T22:00:00Z,26.5545,-82.1715,1.714,32.96,1111122 
SCCF RECON,ioos:station:SCCF:51:1,2011-02-01T23:00:00Z,26.5545,-82.1715,1.742,32.94,1111122 
SCCF RECON,ioos:station:SCCF:51:1,2011-02-02T00:00:00Z,26.5545,-82.1715,1.805,32.97,1111122 
SCCF RECON,ioos:station:SCCF:51:1,2011-02-02T01:00:00Z,26.5545,-82.1715,1.884,33.1,1111122 
SCCF RECON,ioos:station:SCCF:51:1,2011-02-02T02:00:00Z,26.5545,-82.1715,1.989,33.74,1111122 
SCCF RECON,ioos:station:SCCF:51:1,2011-02-02T03:00:00Z,26.5545,-82.1715,2.09,33.82,1111122 
SCCF RECON,ioos:station:SCCF:51:1,2011-02-02T04:00:00Z,26.5545,-82.1715,2.15,33.85,1111122 
SCCF RECON,ioos:station:SCCF:51:1,2011-02-02T05:00:00Z,26.5545,-82.1715,2.15,33.85,1111122 
SCCF RECON,ioos:station:SCCF:51:1,2011-02-02T06:00:00Z,26.5545,-82.1715,2.08,33.77,1111122 
SCCF RECON,ioos:station:SCCF:51:1,2011-02-02T07:00:00Z,26.5545,-82.1715,1.97,33.64,1111122 
SCCF RECON,ioos:station:SCCF:51:1,2011-02-02T08:00:00Z,26.5545,-82.1715,1.835,33.33,1111122 
SCCF RECON,ioos:station:SCCF:51:1,2011-02-02T09:00:00Z,26.5545,-82.1715,1.702,32.95,1111122 
SCCF RECON,ioos:station:SCCF:51:1,2011-02-02T10:00:00Z,26.5545,-82.1715,1.575,32.67,1111122 
SCCF RECON,ioos:station:SCCF:51:1,2011-02-02T11:00:00Z,26.5545,-82.1715,1.473,32.52,1111122 
SCCF RECON,ioos:station:SCCF:51:1,2011-02-02T12:00:00Z,26.5545,-82.1715,1.411,32.67,1111122 
SCCF RECON,ioos:station:SCCF:51:1,2011-02-02T13:00:00Z,26.5545,-82.1715,1.4,32.84,1111122 
SCCF RECON,ioos:station:SCCF:51:1,2011-02-02T14:00:00Z,26.5545,-82.1715,1.468,32.94,1111122 
SCCF RECON,ioos:station:SCCF:51:1,2011-02-02T15:00:00Z,26.5545,-82.1715,1.591,32.72,1111122 
SCCF RECON,ioos:station:SCCF:51:1,2011-02-02T16:00:00Z,26.5545,-82.1715,1.727,33.06,1111122 
SCCF RECON,ioos:station:SCCF:51:1,2011-02-02T17:00:00Z,26.5545,-82.1715,1.813,33.12,1111122 
SCCF RECON,ioos:station:SCCF:51:1,2011-02-02T18:00:00Z,26.5545,-82.1715,1.859,33.1,1111122 
SCCF RECON,ioos:station:SCCF:51:1,2011-02-02T19:00:00Z,26.5545,-82.1715,1.856,33.3,1111122 
SCCF RECON,ioos:station:SCCF:51:1,2011-02-02T20:00:00Z,26.5545,-82.1715,1.8,32.93,1111122 
SCCF RECON,ioos:station:SCCF:51:1,2011-02-02T21:00:00Z,26.5545,-82.1715,1.754,32.51,1111122 
SCCF RECON,ioos:station:SCCF:51:1,2011-02-02T22:00:00Z,26.5545,-82.1715,1.693,32.47,1111122 
SCCF RECON,ioos:station:SCCF:51:1,2011-02-02T23:00:00Z,26.5545,-82.1715,1.646,32.64,1111122 
SCCF RECON,ioos:station:SCCF:51:1,2011-02-03T00:00:00Z,26.5545,-82.1715,1.623,32.55,1111122 
SCCF RECON,ioos:station:SCCF:51:1,2011-02-03T01:00:00Z,26.5545,-82.1715,1.663,32.91,1111122 
SCCF RECON,ioos:station:SCCF:51:1,2011-02-03T02:00:00Z,26.5545,-82.1715,1.731,32.64,1111122 
SCCF RECON,ioos:station:SCCF:51:1,2011-02-03T03:00:00Z,26.5545,-82.1715,1.84,33.05,1111122 
SCCF RECON,ioos:station:SCCF:51:1,2011-02-03T04:00:00Z,26.5545,-82.1715,1.95,33.56,1111122 
SCCF RECON,ioos:station:SCCF:51:1,2011-02-03T05:00:00Z,26.5545,-82.1715,2.02,33.58,1111122 
SCCF RECON,ioos:station:SCCF:51:1,2011-02-03T06:00:00Z,26.5545,-82.1715,2.003,33.52,1111122 
SCCF RECON,ioos:station:SCCF:51:1,2011-02-03T07:00:00Z,26.5545,-82.1715,1.92,33.13,1111122 
SCCF RECON,ioos:station:SCCF:51:1,2011-02-03T08:00:00Z,26.5545,-82.1715,1.81,32.82,1111122 
SCCF RECON,ioos:station:SCCF:51:1,2011-02-03T09:00:00Z,26.5545,-82.1715,1.68,32.73,1111122 
SCCF RECON,ioos:station:SCCF:51:1,2011-02-03T10:00:00Z,26.5545,-82.1715,1.56,32.68,1111122 
SCCF RECON,ioos:station:SCCF:51:1,2011-02-03T11:00:00Z,26.5545,-82.1715,1.46,32.48,1111122 
SCCF RECON,ioos:station:SCCF:51:1,2011-02-03T12:00:00Z,26.5545,-82.1715,1.379,31.94,1111122 
SCCF RECON,ioos:station:SCCF:51:1,2011-02-03T13:00:00Z,26.5545,-82.1715,1.322,32.15,1111122 
SCCF RECON,ioos:station:SCCF:51:1,2011-02-03T14:00:00Z,26.5545,-82.1715,1.342,32.22,1111122 
SCCF RECON,ioos:station:SCCF:51:1,2011-02-03T15:00:00Z,26.5545,-82.1715,1.44,32.15,1111122 
SCCF RECON,ioos:station:SCCF:51:1,2011-02-03T16:00:00Z,26.5545,-82.1715,1.56,32.37,1111122 
SCCF RECON,ioos:station:SCCF:51:1,2011-02-03T17:00:00Z,26.5545,-82.1715,1.684,33.34,1111122 
SCCF RECON,ioos:station:SCCF:51:1,2011-02-03T18:00:00Z,26.5545,-82.1715,1.773,33.44,1111122 
SCCF RECON,ioos:station:SCCF:51:1,2011-02-03T19:00:00Z,26.5545,-82.1715,1.812,33.34,1111122 
SCCF RECON,ioos:station:SCCF:51:1,2011-02-03T20:00:00Z,26.5545,-82.1715,1.787,33.26,1111122 
SCCF RECON,ioos:station:SCCF:51:1,2011-02-03T21:00:00Z,26.5545,-82.1715,1.718,32.47,1111122 
SCCF RECON,ioos:station:SCCF:51:1,2011-02-03T22:00:00Z,26.5545,-82.1715,1.635,32.42,1111122 
SCCF RECON,ioos:station:SCCF:51:1,2011-02-03T23:00:00Z,26.5545,-82.1715,1.578,32.42,1111122 
SCCF RECON,ioos:station:SCCF:51:1,2011-02-04T00:00:00Z,26.5545,-82.1715,1.566,32.47,1111122 
SCCF RECON,ioos:station:SCCF:51:1,2011-02-04T01:00:00Z,26.5545,-82.1715,1.62,32.76,1111122 
SCCF RECON,ioos:station:SCCF:51:1,2011-02-04T02:00:00Z,26.5545,-82.1715,1.701,32.94,1111122 
SCCF RECON,ioos:station:SCCF:51:1,2011-02-04T03:00:00Z,26.5545,-82.1715,1.811,33.36,1111122 
SCCF RECON,ioos:station:SCCF:51:1,2011-02-04T04:00:00Z,26.5545,-82.1715,1.94,33.62,1111122 
SCCF RECON,ioos:station:SCCF:51:1,2011-02-04T05:00:00Z,26.5545,-82.1715,2.034,33.63,1111122 
SCCF RECON,ioos:station:SCCF:51:1,2011-02-04T06:00:00Z,26.5545,-82.1715,2.064,33.6,1111122 
SCCF RECON,ioos:station:SCCF:51:1,2011-02-04T07:00:00Z,26.5545,-82.1715,2.009,33.57,1111122 
SCCF RECON,ioos:station:SCCF:51:1,2011-02-04T08:00:00Z,26.5545,-82.1715,1.911,33.4,1111122 
SCCF RECON,ioos:station:SCCF:51:1,2011-02-04T09:00:00Z,26.5545,-82.1715,1.801,32.78,1111122 
SCCF RECON,ioos:station:SCCF:51:1,2011-02-04T10:00:00Z,26.5545,-82.1715,1.678,32.59,1111122 
SCCF RECON,ioos:station:SCCF:51:1,2011-02-04T11:00:00Z,26.5545,-82.1715,1.562,32.41,1111122 
SCCF RECON,ioos:station:SCCF:51:1,2011-02-04T12:00:00Z,26.5545,-82.1715,1.466,32.04,1111122 
SCCF RECON,ioos:station:SCCF:51:1,2011-02-04T13:00:00Z,26.5545,-82.1715,1.389,31.97,1111122 
SCCF RECON,ioos:station:SCCF:51:1,2011-02-04T14:00:00Z,26.5545,-82.1715,1.368,32.14,1111122 
SCCF RECON,ioos:station:SCCF:51:1,2011-02-04T15:00:00Z,26.5545,-82.1715,1.44,32.14,1111122 
SCCF RECON,ioos:station:SCCF:51:1,2011-02-04T16:00:00Z,26.5545,-82.1715,1.555,32.22,1111122 
SCCF RECON,ioos:station:SCCF:51:1,2011-02-04T17:00:00Z,26.5545,-82.1715,1.671,32.95,1111122 
SCCF RECON,ioos:station:SCCF:51:1,2011-02-04T18:00:00Z,26.5545,-82.1715,1.748,33.04,1111122 
SCCF RECON,ioos:station:SCCF:51:1,2011-02-04T19:00:00Z,26.5545,-82.1715,1.772,33.35,1111122 
SCCF RECON,ioos:station:SCCF:51:1,2011-02-04T20:00:00Z,26.5545,-82.1715,1.74,32.81,1111122 
SCCF RECON,ioos:station:SCCF:51:1,2011-02-04T21:00:00Z,26.5545,-82.1715,1.679,32.49,1111122 
SCCF RECON,ioos:station:SCCF:51:1,2011-02-04T22:00:00Z,26.5545,-82.1715,1.612,32.24,1111122 
SCCF RECON,ioos:station:SCCF:51:1,2011-02-04T23:00:00Z,26.5545,-82.1715,1.544,32.1,1111122 
SCCF RECON,ioos:station:SCCF:51:1,2011-02-05T00:00:00Z,26.5545,-82.1715,1.502,32.1,1111122 
SCCF RECON,ioos:station:SCCF:51:1,2011-02-05T01:00:00Z,26.5545,-82.1715,1.497,32.12,1111122 
SCCF RECON,ioos:station:SCCF:51:1,2011-02-05T02:00:00Z,26.5545,-82.1715,1.551,32.17,1111122 
SCCF RECON,ioos:station:SCCF:51:1,2011-02-05T03:00:00Z,26.5545,-82.1715,1.624,32.45,1111122 
SCCF RECON,ioos:station:SCCF:51:1,2011-02-05T04:00:00Z,26.5545,-82.1715,1.747,33.49,1111122 
SCCF RECON,ioos:station:SCCF:51:1,2011-02-05T05:00:00Z,26.5545,-82.1715,1.876,33.58,1111122 
SCCF RECON,ioos:station:SCCF:51:1,2011-02-05T06:00:00Z,26.5545,-82.1715,1.958,33.44,1111122 
SCCF RECON,ioos:station:SCCF:51:1,2011-02-05T07:00:00Z,26.5545,-82.1715,1.971,33.61,1111122 
SCCF RECON,ioos:station:SCCF:51:1,2011-02-05T08:00:00Z,26.5545,-82.1715,1.908,33.36,1111122 
SCCF RECON,ioos:station:SCCF:51:1,2011-02-05T09:00:00Z,26.5545,-82.1715,1.807,32.68,1111122 
SCCF RECON,ioos:station:SCCF:51:1,2011-02-05T10:00:00Z,26.5545,-82.1715,1.694,32.53,1111122 
SCCF RECON,ioos:station:SCCF:51:1,2011-02-05T11:00:00Z,26.5545,-82.1715,1.591,32.33,1111122 
SCCF RECON,ioos:station:SCCF:51:1,2011-02-05T12:00:00Z,26.5545,-82.1715,1.504,32.27,1111122 
SCCF RECON,ioos:station:SCCF:51:1,2011-02-05T13:00:00Z,26.5545,-82.1715,1.429,32.01,1111122 
SCCF RECON,ioos:station:SCCF:51:1,2011-02-05T14:00:00Z,26.5545,-82.1715,1.395,31.97,1111122 
SCCF RECON,ioos:station:SCCF:51:1,2011-02-05T15:00:00Z,26.5545,-82.1715,1.445,32.04,1111122 
SCCF RECON,ioos:station:SCCF:51:1,2011-02-05T16:00:00Z,26.5545,-82.1715,1.549,32.42,1111122 
SCCF RECON,ioos:station:SCCF:51:1,2011-02-05T17:00:00Z,26.5545,-82.1715,1.682,33.05,1111122 
SCCF RECON,ioos:station:SCCF:51:1,2011-02-05T18:00:00Z,26.5545,-82.1715,1.804,33.06,1111122 
SCCF RECON,ioos:station:SCCF:51:1,2011-02-05T19:00:00Z,26.5545,-82.1715,1.856,33.14,1111122 
SCCF RECON,ioos:station:SCCF:51:1,2011-02-05T20:00:00Z,26.5545,-82.1715,1.835,33.05,1111122 
SCCF RECON,ioos:station:SCCF:51:1,2011-02-05T21:00:00Z,26.5545,-82.1715,1.776,32.63,1111122 
SCCF RECON,ioos:station:SCCF:51:1,2011-02-05T22:00:00Z,26.5545,-82.1715,1.699,32.47,1111122 
SCCF RECON,ioos:station:SCCF:51:1,2011-02-05T23:00:00Z,26.5545,-82.1715,1.616,32.28,1111122 
SCCF RECON,ioos:station:SCCF:51:1,2011-02-06T00:00:00Z,26.5545,-82.1715,1.535,32.04,1111122 
SCCF RECON,ioos:station:SCCF:51:1,2011-02-06T01:00:00Z,26.5545,-82.1715,1.494,31.96,1111122 
SCCF RECON,ioos:station:SCCF:51:1,2011-02-06T02:00:00Z,26.5545,-82.1715,1.507,31.99,1111122 
SCCF RECON,ioos:station:SCCF:51:1,2011-02-06T03:00:00Z,26.5545,-82.1715,1.557,32.22,1111122 
SCCF RECON,ioos:station:SCCF:51:1,2011-02-06T04:00:00Z,26.5545,-82.1715,1.635,32.51,1111122 
SCCF RECON,ioos:station:SCCF:51:1,2011-02-06T05:00:00Z,26.5545,-82.1715,1.744,32.74,1111122 
SCCF RECON,ioos:station:SCCF:51:1,2011-02-06T06:00:00Z,26.5545,-82.1715,1.846,33.07,1111122 
SCCF RECON,ioos:station:SCCF:51:1,2011-02-06T07:00:00Z,26.5545,-82.1715,1.872,33.3,1111122 
SCCF RECON,ioos:station:SCCF:51:1,2011-02-06T08:00:00Z,26.5545,-82.1715,1.83,32.96,1111122 
SCCF RECON,ioos:station:SCCF:51:1,2011-02-06T09:00:00Z,26.5545,-82.1715,1.77,32.61,1111122 
SCCF RECON,ioos:station:SCCF:51:1,2011-02-06T10:00:00Z,26.5545,-82.1715,1.697,32.21,1111122 
SCCF RECON,ioos:station:SCCF:51:1,2011-02-06T11:00:00Z,26.5545,-82.1715,1.609,31.98,1111122 
SCCF RECON,ioos:station:SCCF:51:1,2011-02-06T12:00:00Z,26.5545,-82.1715,1.532,31.89,1111122 
SCCF RECON,ioos:station:SCCF:51:1,2011-02-06T13:00:00Z,26.5545,-82.1715,1.48,31.96,1111122 
SCCF RECON,ioos:station:SCCF:51:1,2011-02-06T14:00:00Z,26.5545,-82.1715,1.426,31.97,1111122 
SCCF RECON,ioos:station:SCCF:51:1,2011-02-06T15:00:00Z,26.5545,-82.1715,1.433,32.08,1111122 
SCCF RECON,ioos:station:SCCF:51:1,2011-02-06T16:00:00Z,26.5545,-82.1715,1.5,32.32,1111122 
SCCF RECON,ioos:station:SCCF:51:1,2011-02-06T17:00:00Z,26.5545,-82.1715,1.592,32.4,1111122 
SCCF RECON,ioos:station:SCCF:51:1,2011-02-06T18:00:00Z,26.5545,-82.1715,1.712,33.06,1111122 
SCCF RECON,ioos:station:SCCF:51:1,2011-02-06T19:00:00Z,26.5545,-82.1715,1.796,33.28,1111122 
SCCF RECON,ioos:station:SCCF:51:1,2011-02-06T20:00:00Z,26.5545,-82.1715,1.814,33.17,1111122 
SCCF RECON,ioos:station:SCCF:51:1,2011-02-06T21:00:00Z,26.5545,-82.1715,1.786,32.73,1111122 
SCCF RECON,ioos:station:SCCF:51:1,2011-02-06T22:00:00Z,26.5545,-82.1715,1.718,32.77,1111122 
SCCF RECON,ioos:station:SCCF:51:1,2011-02-06T23:00:00Z,26.5545,-82.1715,1.64,32.06,1111122 
SCCF RECON,ioos:station:SCCF:51:1,2011-02-07T00:00:00Z,26.5545,-82.1715,1.55,32.2,1111122 
SCCF RECON,ioos:station:SCCF:51:1,2011-02-07T01:00:00Z,26.5545,-82.1715,1.49,32.18,1111122 
SCCF RECON,ioos:station:SCCF:51:1,2011-02-07T02:00:00Z,26.5545,-82.1715,1.463,32.62,1111122 
SCCF RECON,ioos:station:SCCF:51:1,2011-02-07T03:00:00Z,26.5545,-82.1715,1.49,32.4,1111122 
SCCF RECON,ioos:station:SCCF:51:1,2011-02-07T04:00:00Z,26.5545,-82.1715,1.558,32.1,1111122 
SCCF RECON,ioos:station:SCCF:51:1,2011-02-07T05:00:00Z,26.5545,-82.1715,1.65,32.38,1111122 
SCCF RECON,ioos:station:SCCF:51:1,2011-02-07T06:00:00Z,26.5545,-82.1715,1.76,33.03,1111122 
SCCF RECON,ioos:station:SCCF:51:1,2011-02-07T07:00:00Z,26.5545,-82.1715,1.84,33.0,1111122 
SCCF RECON,ioos:station:SCCF:51:1,2011-02-07T08:00:00Z,26.5545,-82.1715,1.851,33.42,1111122 
SCCF RECON,ioos:station:SCCF:51:1,2011-02-07T09:00:00Z,26.5545,-82.1715,1.81,33.34,1111122 
SCCF RECON,ioos:station:SCCF:51:1,2011-02-07T10:00:00Z,26.5545,-82.1715,1.738,33.23,1111122 
SCCF RECON,ioos:station:SCCF:51:1,2011-02-07T11:00:00Z,26.5545,-82.1715,1.661,32.73,1111122 
SCCF RECON,ioos:station:SCCF:51:1,2011-02-07T12:00:00Z,26.5545,-82.1715,1.589,32.68,1111122 
SCCF RECON,ioos:station:SCCF:51:1,2011-02-07T13:00:00Z,26.5545,-82.1715,1.53,32.6,1111122 
SCCF RECON,ioos:station:SCCF:51:1,2011-02-07T14:00:00Z,26.5545,-82.1715,1.518,32.61,1111122 
SCCF RECON,ioos:station:SCCF:51:1,2011-02-07T15:00:00Z,26.5545,-82.1715,1.533,32.71,1111122 
SCCF RECON,ioos:station:SCCF:51:1,2011-02-07T16:00:00Z,26.5545,-82.1715,1.613,32.65,1111122 
SCCF RECON,ioos:station:SCCF:51:1,2011-02-07T17:00:00Z,26.5545,-82.1715,1.72,33.1,1111122 
SCCF RECON,ioos:station:SCCF:51:1,2011-02-07T18:00:00Z,26.5545,-82.1715,1.823,32.93,1111122 
SCCF RECON,ioos:station:SCCF:51:1,2011-02-07T19:00:00Z,26.5545,-82.1715,1.907,33.49,1111122 
SCCF RECON,ioos:station:SCCF:51:1,2011-02-07T20:00:00Z,26.5545,-82.1715,1.947,33.51,1111122 
SCCF RECON,ioos:station:SCCF:51:1,2011-02-07T21:00:00Z,26.5545,-82.1715,1.942,33.41,1111122 
SCCF RECON,ioos:station:SCCF:51:1,2011-02-07T22:00:00Z,26.5545,-82.1715,1.881,32.84,1111122 
SCCF RECON,ioos:station:SCCF:51:1,2011-02-07T23:00:00Z,26.5545,-82.1715,1.805,32.88,1111122 
SCCF RECON,ioos:station:SCCF:51:1,2011-02-08T00:00:00Z,26.5545,-82.1715,1.734,32.52,1111122 
SCCF RECON,ioos:station:SCCF:51:1,2011-02-08T01:00:00Z,26.5545,-82.1715,1.639,32.54,1111122 
SCCF RECON,ioos:station:SCCF:51:1,2011-02-08T02:00:00Z,26.5545,-82.1715,1.557,32.37,1111122 
SCCF RECON,ioos:station:SCCF:51:1,2011-02-08T03:00:00Z,26.5545,-82.1715,1.513,32.53,1111122 
SCCF RECON,ioos:station:SCCF:51:1,2011-02-08T04:00:00Z,26.5545,-82.1715,1.506,32.48,1111122 
SCCF RECON,ioos:station:SCCF:51:1,2011-02-08T05:00:00Z,26.5545,-82.1715,1.548,32.45,1111122 
SCCF RECON,ioos:station:SCCF:51:1,2011-02-08T06:00:00Z,26.5545,-82.1715,1.611,32.62,1111122 
SCCF RECON,ioos:station:SCCF:51:1,2011-02-08T07:00:00Z,26.5545,-82.1715,1.693,32.77,1111122 
SCCF RECON,ioos:station:SCCF:51:1,2011-02-08T08:00:00Z,26.5545,-82.1715,1.745,33.15,1111122 
SCCF RECON,ioos:station:SCCF:51:1,2011-02-08T09:00:00Z,26.5545,-82.1715,1.718,32.9,1111122 
SCCF RECON,ioos:station:SCCF:51:1,2011-02-08T10:00:00Z,26.5545,-82.1715,1.673,33.07,1111122 
SCCF RECON,ioos:station:SCCF:51:1,2011-02-08T11:00:00Z,26.5545,-82.1715,1.613,32.92,1111122 
SCCF RECON,ioos:station:SCCF:51:1,2011-02-08T12:00:00Z,26.5545,-82.1715,1.548,32.87,1111122 
SCCF RECON,ioos:station:SCCF:51:1,2011-02-08T13:00:00Z,26.5545,-82.1715,1.489,32.79,1111122 
SCCF RECON,ioos:station:SCCF:51:1,2011-02-08T14:00:00Z,26.5545,-82.1715,1.474,32.71,1111122 
SCCF RECON,ioos:station:SCCF:51:1,2011-02-08T15:00:00Z,26.5545,-82.1715,1.521,32.78,1111122 
SCCF RECON,ioos:station:SCCF:51:1,2011-02-08T17:00:00Z,26.5545,-82.1715,1.667,32.99,1111122 
SCCF RECON,ioos:station:SCCF:51:1,2011-02-08T18:00:00Z,26.5545,-82.1715,1.742,33.24,1111122 
SCCF RECON,ioos:station:SCCF:51:1,2011-02-08T19:00:00Z,26.5545,-82.1715,1.81,33.6,1111122 
SCCF RECON,ioos:station:SCCF:51:1,2011-02-08T20:00:00Z,26.5545,-82.1715,1.859,33.61,1111122 
SCCF RECON,ioos:station:SCCF:51:1,2011-02-08T21:00:00Z,26.5545,-82.1715,1.845,33.57,1111122 
SCCF RECON,ioos:station:SCCF:51:1,2011-02-08T22:00:00Z,26.5545,-82.1715,1.791,33.39,1111122 
SCCF RECON,ioos:station:SCCF:51:1,2011-02-08T23:00:00Z,26.5545,-82.1715,1.726,33.4,1111122 
SCCF RECON,ioos:station:SCCF:51:1,2011-02-09T00:00:00Z,26.5545,-82.1715,1.652,33.22,1111122 
SCCF RECON,ioos:station:SCCF:51:1,2011-02-09T01:00:00Z,26.5545,-82.1715,1.583,33.19,1111122 
SCCF RECON,ioos:station:SCCF:51:1,2011-02-09T02:00:00Z,26.5545,-82.1715,1.518,33.3,1111122 
SCCF RECON,ioos:station:SCCF:51:1,2011-02-09T03:00:00Z,26.5545,-82.1715,1.449,33.33,1111122 
SCCF RECON,ioos:station:SCCF:51:1,2011-02-09T04:00:00Z,26.5545,-82.1715,1.404,33.41,1111122 
SCCF RECON,ioos:station:SCCF:51:1,2011-02-09T05:00:00Z,26.5545,-82.1715,1.403,33.32,1111122 
SCCF RECON,ioos:station:SCCF:51:1,2011-02-09T06:00:00Z,26.5545,-82.1715,1.447,33.53,1111122 
SCCF RECON,ioos:station:SCCF:51:1,2011-02-09T07:00:00Z,26.5545,-82.1715,1.494,33.74,1111122 
SCCF RECON,ioos:station:SCCF:51:1,2011-02-09T08:00:00Z,26.5545,-82.1715,1.554,33.73,1111122 
SCCF RECON,ioos:station:SCCF:51:1,2011-02-09T09:00:00Z,26.5545,-82.1715,1.59,33.74,1111122 
SCCF RECON,ioos:station:SCCF:51:1,2011-02-09T10:00:00Z,26.5545,-82.1715,1.579,33.73,1111122 
SCCF RECON,ioos:station:SCCF:51:1,2011-02-09T11:00:00Z,26.5545,-82.1715,1.548,33.76,1111122 
SCCF RECON,ioos:station:SCCF:51:1,2011-02-09T12:00:00Z,26.5545,-82.1715,1.511,33.63,1111122 
SCCF RECON,ioos:station:SCCF:51:1,2011-02-09T13:00:00Z,26.5545,-82.1715,1.476,33.57,1111122 
SCCF RECON,ioos:station:SCCF:51:1,2011-02-09T14:00:00Z,26.5545,-82.1715,1.449,33.51,1111122 
SCCF RECON,ioos:station:SCCF:51:1,2011-02-09T15:00:00Z,26.5545,-82.1715,1.472,33.44,1111122 
SCCF RECON,ioos:station:SCCF:51:1,2011-02-09T16:00:00Z,26.5545,-82.1715,1.527,33.42,1111122 
SCCF RECON,ioos:station:SCCF:51:1,2011-02-09T17:00:00Z,26.5545,-82.1715,1.591,33.48,1111122 
SCCF RECON,ioos:station:SCCF:51:1,2011-02-09T18:00:00Z,26.5545,-82.1715,1.666,33.65,1111122 
SCCF RECON,ioos:station:SCCF:51:1,2011-02-09T19:00:00Z,26.5545,-82.1715,1.755,33.64,1111122 
SCCF RECON,ioos:station:SCCF:51:1,2011-02-09T20:00:00Z,26.5545,-82.1715,1.82,33.66,1111122 
SCCF RECON,ioos:station:SCCF:51:1,2011-02-09T21:00:00Z,26.5545,-82.1715,1.853,33.64,1111122 
SCCF RECON,ioos:station:SCCF:51:1,2011-02-09T22:00:00Z,26.5545,-82.1715,1.858,33.68,1111122 
SCCF RECON,ioos:station:SCCF:51:1,2011-02-09T23:00:00Z,26.5545,-82.1715,1.811,33.54,1111122 
SCCF RECON,ioos:station:SCCF:51:1,2011-02-10T00:00:00Z,26.5545,-82.1715,1.751,33.53,1111122 
SCCF RECON,ioos:station:SCCF:51:1,2011-02-10T01:00:00Z,26.5545,-82.1715,1.683,33.43,1111122 
SCCF RECON,ioos:station:SCCF:51:1,2011-02-10T02:00:00Z,26.5545,-82.1715,1.592,33.15,1111122 
SCCF RECON,ioos:station:SCCF:51:1,2011-02-10T03:00:00Z,26.5545,-82.1715,1.512,33.16,1111122 
SCCF RECON,ioos:station:SCCF:51:1,2011-02-10T04:00:00Z,26.5545,-82.1715,1.43,33.0,1111122 
SCCF RECON,ioos:station:SCCF:51:1,2011-02-10T05:00:00Z,26.5545,-82.1715,1.41,33.0,1111122 
SCCF RECON,ioos:station:SCCF:51:1,2011-02-10T06:00:00Z,26.5545,-82.1715,1.43,33.2,1111122 
SCCF RECON,ioos:station:SCCF:51:1,2011-02-10T07:00:00Z,26.5545,-82.1715,1.5,33.44,1111122 
SCCF RECON,ioos:station:SCCF:51:1,2011-02-10T08:00:00Z,26.5545,-82.1715,1.56,33.39,1111122 
SCCF RECON,ioos:station:SCCF:51:1,2011-02-10T09:00:00Z,26.5545,-82.1715,1.611,33.52,1111122 
SCCF RECON,ioos:station:SCCF:51:1,2011-02-10T10:00:00Z,26.5545,-82.1715,1.631,33.4,1111122 
SCCF RECON,ioos:station:SCCF:51:1,2011-02-10T11:00:00Z,26.5545,-82.1715,1.639,33.34,1111122 
SCCF RECON,ioos:station:SCCF:51:1,2011-02-10T12:00:00Z,26.5545,-82.1715,1.645,33.3,1111122 
SCCF RECON,ioos:station:SCCF:51:1,2011-02-10T13:00:00Z,26.5545,-82.1715,1.66,33.26,1111122 
SCCF RECON,ioos:station:SCCF:51:1,2011-02-10T14:00:00Z,26.5545,-82.1715,1.672,33.2,1111122 
SCCF RECON,ioos:station:SCCF:51:1,2011-02-10T15:00:00Z,26.5545,-82.1715,1.699,33.2,1111122 
SCCF RECON,ioos:station:SCCF:51:1,2011-02-10T16:00:00Z,26.5545,-82.1715,1.73,33.45,1111122 
SCCF RECON,ioos:station:SCCF:51:1,2011-02-10T17:00:00Z,26.5545,-82.1715,1.776,33.62,1111122 
SCCF RECON,ioos:station:SCCF:51:1,2011-02-10T18:00:00Z,26.5545,-82.1715,1.811,33.53,1111122 
SCCF RECON,ioos:station:SCCF:51:1,2011-02-10T19:00:00Z,26.5545,-82.1715,1.835,33.7,1111122 
SCCF RECON,ioos:station:SCCF:51:1,2011-02-10T20:00:00Z,26.5545,-82.1715,1.88,33.67,1111122 
SCCF RECON,ioos:station:SCCF:51:1,2011-02-10T21:00:00Z,26.5545,-82.1715,1.941,33.69,1111122 
SCCF RECON,ioos:station:SCCF:51:1,2011-02-10T22:00:00Z,26.5545,-82.1715,2.002,33.69,1111122 
SCCF RECON,ioos:station:SCCF:51:1,2011-02-10T23:00:00Z,26.5545,-82.1715,1.958,33.7,1111122 
SCCF RECON,ioos:station:SCCF:51:1,2011-02-11T00:00:00Z,26.5545,-82.1715,1.884,33.67,1111122 
SCCF RECON,ioos:station:SCCF:51:1,2011-02-11T01:00:00Z,26.5545,-82.1715,1.776,33.57,1111122 
SCCF RECON,ioos:station:SCCF:51:1,2011-02-11T02:00:00Z,26.5545,-82.1715,1.653,33.35,1111122 
SCCF RECON,ioos:station:SCCF:51:1,2011-02-11T03:00:00Z,26.5545,-82.1715,1.569,33.27,1111122 
SCCF RECON,ioos:station:SCCF:51:1,2011-02-11T04:00:00Z,26.5545,-82.1715,1.482,33.16,1111122 
SCCF RECON,ioos:station:SCCF:51:1,2011-02-11T05:00:00Z,26.5545,-82.1715,1.439,33.14,1111122 
SCCF RECON,ioos:station:SCCF:51:1,2011-02-11T06:00:00Z,26.5545,-82.1715,1.4,33.14,1111122 
SCCF RECON,ioos:station:SCCF:51:1,2011-02-11T07:00:00Z,26.5545,-82.1715,1.372,33.17,1111122 
SCCF RECON,ioos:station:SCCF:51:1,2011-02-11T08:00:00Z,26.5545,-82.1715,1.396,33.2,1111122 
SCCF RECON,ioos:station:SCCF:51:1,2011-02-11T09:00:00Z,26.5545,-82.1715,1.432,33.25,1111122 
SCCF RECON,ioos:station:SCCF:51:1,2011-02-11T10:00:00Z,26.5545,-82.1715,1.499,33.3,1111122 
SCCF RECON,ioos:station:SCCF:51:1,2011-02-11T11:00:00Z,26.5545,-82.1715,1.567,33.33,1111122 
SCCF RECON,ioos:station:SCCF:51:1,2011-02-11T12:00:00Z,26.5545,-82.1715,1.639,33.34,1111122 
SCCF RECON,ioos:station:SCCF:51:1,2011-02-11T13:00:00Z,26.5545,-82.1715,1.67,33.45,1111122 
SCCF RECON,ioos:station:SCCF:51:1,2011-02-11T14:00:00Z,26.5545,-82.1715,1.688,33.28,1111122 
SCCF RECON,ioos:station:SCCF:51:1,2011-02-11T15:00:00Z,26.5545,-82.1715,1.676,33.25,1111122 
SCCF RECON,ioos:station:SCCF:51:1,2011-02-11T16:00:00Z,26.5545,-82.1715,1.659,33.24,1111122 
SCCF RECON,ioos:station:SCCF:51:1,2011-02-11T17:00:00Z,26.5545,-82.1715,1.663,33.34,1111122 
SCCF RECON,ioos:station:SCCF:51:1,2011-02-11T18:00:00Z,26.5545,-82.1715,1.691,33.46,1111122 